Tracking 19794 objects as of 22-Jul-2019
HD Live streaming from Space Station
objects crossing your sky now

COSMOS 1057

Track COSMOS 1057 now!
10-day predictions
COSMOS 1057 is classified as:


NORAD ID: 11134
Int'l Code: 1978-109G
Perigee: 1,487.3 km
Apogee: 1,522.4 km
Inclination: 74.0 °
Period: 115.9 minutes
Semi major axis: 7875 km
RCS: 0.7046 m2 (medium)
Launch date: December 5, 1978
Source: Commonwealth of Independent States (former USSR) (CIS)
Launch site: PLESETSK MISSILE AND SPACE COMPLEX (PKMTR)
aabbcc
Your satellite tracking list
Your tracking list is empty




NASA's NSSDC Master Catalog

Two Line Element Set (TLE):
1 11134U 78109G   19202.86616907 -.00000012 +00000-0 +24631-4 0  9996
2 11134 074.0181 354.8979 0022281 241.8056 270.6054 12.42091179842036
Source of the keplerian elements: AFSPC